Location: Aufkirchen
(47.9603°N, 11.3653°E)
Time: 04:12:32
(UTC+01:00)

Vanguard 3 - Pass Details

Date: 29 November 2020
Orbit: 508 x 3262 km, 33.3° (Epoch: 23 January)

Event Time Altitude Azimuth Distance (km) Brightness Sun altitude
Rises 01:25:33 0° 246° (WSW) 3,171 - -58.8°
Reaches altitude 10° 01:29:04 10° 218° (SW) 2,612 - -58.4°
Maximum altitude 01:31:52 13° 191° (S) 2,692 - -58.1°
Drops below altitude 10° 01:35:17 10° 166° (SSE) 3,326 - -57.7°
Sets 01:41:11 0° 143° (SE) 4,993 - -57.0°
